www.pogodaiklimat.ru

Погода и климат >> Архив погоды >> Норвегия >> Филефель


ПОГОДА в Филефеле

  • Прогноз погоды в Филефеле
  • Монитор погоды в Филефеле

АРХИВ ПОГОДЫ в Филефеле

Время (UTC), дата Ветер
(напр.,м/с)
 
Видим.   Явления Облачность Т
(С)
Тd
(С)
f
(%)
Тe
(С)
Тes
(С)
Комфортность P
(гПа)
Po
(гПа)
Тmin
(С)
Tmax
(С)
R
(мм)
R24
(мм)
S
(см)
19 16.09 СЗ 2
{5}
н/о н/о +1.1 -0.8 87 -2 -2 1006.4 895.0
20 16.09 СЗ 2
{6}
н/о н/о +0.8 -1.1 87 -3 -3 1006.2 894.7 0.2
21 16.09 З 2
{7}
н/о н/о +0.6 -1.8 84 -3 -3 1005.8 894.3
22 16.09 СЗ 2
{5}
н/о н/о +0.4 -0.7 92 -3 -3 1005.4 893.9
23 16.09 З 2
{3}
н/о н/о +0.2 -0.5 95 -4 -4 1005.1 893.5 0.9
00 17.09 ЮЗ 6
{8}
н/о н/о +0.2 -1.8 86 -6 -6 1004.9 893.3
01 17.09 З 6
{10}
н/о н/о -0.7 -3.2 83 -7 -7 1005.1 893.1 0.1
02 17.09 СЗ 3
{9}
н/о н/о -1.7 -3.5 87 -7 -7 1005.2 892.9
03 17.09 З 2
{5}
н/о н/о -2.4 -4.3 87 -6 -6 1005.1 892.6
04 17.09 ЮВ 2
{3}
н/о н/о -3.6 -4.7 92 -8 -8 1005.8 892.7
05 17.09 З 2
{7}
н/о н/о -1.6 -4.7 79 -5 -5 1005.4 893.1
06 17.09 В 2
{10}
н/о н/о -1.4 -3.6 85 -5 -5 1005.8 893.5 -3.7 +1.6
07 17.09 З 4
{6}
н/о н/о +0.3 -3.9 73 -5 -5 1005.7 894.1
08 17.09 З 4
{7}
н/о н/о +0.7 -4.1 70 -4 -4 1006.7 895.2
09 17.09 З 4
{9}
н/о н/о +2.1 -3.4 67 -3 -3 1007.1 896.0
10 17.09 З 5
{10}
н/о н/о +2.6 -3.1 66 -2 -2 1007.9 896.9
11 17.09 З 5
{9}
н/о н/о +2.9 -3.4 63 -2 -2 1008.8 897.8
12 17.09 З 5
{10}
н/о н/о +4.6 -2.7 59 0 0 1008.7 898.3
13 17.09 З 5
{9}
н/о н/о +2.9 -2.2 69 -2 -2 1010.1 899.0
14 17.09 З 6
{10}
н/о н/о +2.4 -2.1 72 -3 -3 1011.1 899.7
15 17.09 З 7
{10}
н/о н/о +2.1 -1.0 80 -4 -4 1011.6 900.0
16 17.09 З 8
{11}
н/о н/о +2.4 -0.7 80 -4 -4 1012.3 900.7
17 17.09 З 6
{11}
н/о н/о +2.3 -0.6 81 -4 -4 1013.0 901.3
18 17.09 З 7
{11}
н/о н/о +2.6 -0.7 79 -4 -4 1013.3 901.7 -1.4 +4.6
19 17.09 З 6
{10}
н/о н/о +3.1 -1.4 72 -2 -2 1013.7 902.3
20 17.09 З 5
{12}
н/о н/о +3.0 -0.6 77 -2 -2 1014.8 903.2
21 17.09 З 5
{9}
н/о н/о +3.0 -1.3 73 -2 -2 1015.1 903.5
22 17.09 З 6
{10}
н/о н/о +3.0 -1.7 71 -3 -3 1015.4 903.7
23 17.09 З 6
{11}
н/о н/о +2.1 -2.0 74 -4 -4 1016.1 904.1
00 18.09 З 5
{12}
н/о н/о +2.6 -2.1 71 -3 -3 1016.2 904.3
01 18.09 З 5
{10}
н/о н/о +2.5 -2.4 70 -3 -3 1016.5 904.5
02 18.09 ЮЗ 6
{9}
н/о н/о +1.9 -1.5 78 -4 -4 1017.1 904.8
03 18.09 З 3
{9}
н/о н/о +1.1 -1.6 82 -3 -3 1017.6 905.0
04 18.09 З 5
{7}
н/о н/о +1.3 -1.9 79 -4 -4 1017.8 905.2
05 18.09 З 4
{9}
н/о н/о +0.6 -1.8 84 -5 -5 1018.5 905.6
06 18.09 З 5
{10}
н/о н/о +1.6 -1.0 83 -4 -4 1018.6 906.1 +0.4 +3.1
07 18.09 З 4
{8}
н/о н/о +2.3 -1.3 77 -2 -2 1019.2 906.8
08 18.09 ЮЗ 5
{8}
н/о н/о +3.2 -1.7 70 -2 -2 1019.3 907.3
09 18.09 З 5
{9}
н/о н/о +4.3 -2.5 61 -0 -0 1019.4 907.7
10 18.09 З 6
{11}
н/о н/о +4.9 -1.3 64 0 0 1019.4 908.0
11 18.09 З 5
{11}
н/о н/о +5.2 -2.6 57 +1 +1 1019.6 908.3
12 18.09 З 6
{11}
н/о н/о +4.8 -2.7 58 0 0 1020.2 908.8
13 18.09 З 5
{10}
н/о н/о +4.6 -2.2 61 0 0 1020.7 909.1
14 18.09 З 5
{9}
н/о н/о +5.1 -2.0 60 +1 +1 1020.8 909.3
15 18.09 ЮЗ 5
{8}
н/о н/о +4.6 -1.8 63 0 0 1021.5 909.7
16 18.09 З 5
{9}
н/о н/о +3.6 -2.1 66 -1 -1 1022.1 909.9
17 18.09 З 4
{9}
н/о н/о +3.3 -2.0 68 -1 -1 1022.6 910.3
18 18.09 З 3
{10}
н/о н/о +2.5 -2.0 72 -1 -1 1023.5 910.8 +1.5 +5.5
19 18.09 ЮЗ 4
{7}
н/о н/о +2.0 -1.9 75 -3 -3 1024.1 911.1
20 18.09 З 2
{7}
н/о н/о +0.9 -2.5 78 -2 -2 1024.9 911.4
21 18.09 З 2
{5}
н/о н/о +0.4 -2.6 80 -3 -3 1025.6 911.8
22 18.09 СЗ 2
{5}
н/о н/о -0.1 -2.1 86 -4 -4 1026.0 912.0
23 18.09 З 1
{4}
н/о н/о -1.0 -2.7 88 -3 -3 1026.5 912.1
00 19.09 З 4
{7}
н/о н/о -0.9 -2.7 88 -7 -7 1026.5 912.1
01 19.09 З 4
{6}
н/о н/о +1.2 -2.5 76 -4 -4 1026.0 912.5
02 19.09 З 5
{8}
н/о н/о +1.2 -2.5 76 -4 -4 1025.9 912.4
03 19.09 З 7
{9}
н/о н/о +1.2 -2.7 75 -5 -5 1026.0 912.5
04 19.09 Ю 1
{9}
н/о н/о -1.0 -3.1 86 -3 -3 1026.8 912.4
05 19.09 ЮВ 1
{4}
н/о н/о -1.7 -3.4 88 -4 -4 1027.6 912.8
06 19.09 В 1
{9}
н/о н/о -0.2 -2.4 85 -2 -2 1027.3 913.0 -2.0 +2.5
07 19.09 З 2
{5}
н/о н/о +1.8 -2.0 76 -1 -1 1026.9 913.5
08 19.09 З 3
{7}
н/о н/о +2.4 -2.5 70 -1 -1 1027.0 913.8
09 19.09 З 3
{5}
н/о н/о +2.6 -2.5 69 -1 -1 1026.8 913.8
10 19.09 З 4
{6}
н/о н/о +3.1 -2.4 67 -1 -1 1026.5 913.7
11 19.09 З 5
{7}
н/о н/о +3.1 -2.6 66 -2 -2 1026.5 913.7
12 19.09 З 5
{7}
н/о н/о +3.3 -2.4 66 -2 -2 1026.3 913.6
13 19.09 ЮЗ 5
{7}
н/о н/о +3.3 -1.8 69 -2 -2 1026.0 913.3
14 19.09 З 3
{7}
н/о н/о +2.5 -0.2 82 -2 -2 1026.2 913.2
15 19.09 ЮЗ 4
{5}
н/о н/о +3.2 -1.0 74 -1 -1 1025.5 912.8
16 19.09 З 4
{6}
н/о н/о +2.5 -0.6 80 -2 -2 1025.4 912.5
17 19.09 З 2
{5}
н/о н/о +2.0 +0.1 87 -1 -1 1025.2 912.1 0.1
18 19.09 СЗ 2
{7}
н/о н/о +1.3 -0.0 91 -2 -2 1025.0 911.6 -0.2 +3.8 0.1
19 19.09 СЗ 2
{4}
н/о н/о +1.0 -0.1 92 -3 -3 1024.8 911.3 0.1
20 19.09 З 3
{4}
н/о н/о +1.2 +0.4 94 -3 -3 1024.0 910.7 0.1
21 19.09 СЗ 3
{6}
н/о н/о +1.6 +0.6 93 -3 -3 1023.6 910.5
22 19.09 СЗ 3
{5}
н/о н/о +2.2 +0.9 91 -2 -2 1023.3 910.5
23 19.09 СЗ 3
{7}
н/о н/о +2.8 +1.3 90 -1 -1 1022.6 910.1
00 20.09 З 4
{7}
н/о н/о +3.5 +1.9 89 -1 -1 1021.8 909.6
01 20.09 ЮЗ 6
{10}
н/о н/о +4.2 +2.6 89 -1 -1 1021.2 909.4
02 20.09 ЮЗ 8
{12}
н/о н/о +4.8 +3.0 88 -1 -1 1020.5 909.0
03 20.09 ЮЗ 5
{11}
н/о н/о +5.1 +3.4 89 0 0 1020.9 909.4
04 20.09 ЮЗ 5
{10}
н/о н/о +5.2 +3.5 89 +1 +1 1020.3 908.9 0.1
05 20.09 ЮЗ 6
{9}
н/о н/о +5.3 +3.8 90 0 0 1020.5 909.1 0.5
06 20.09 ЮЗ 5
{12}
н/о н/о +5.4 +3.9 90 +1 +1 1020.6 909.3 +0.9 +5.6 0.9
07 20.09 З 5
{9}
н/о н/о +6.0 +4.2 88 +2 +2 1020.6 909.5
08 20.09 ЮЗ 5
{10}
н/о н/о +6.1 +4.4 89 +2 +2 1021.1 910.0
09 20.09 З 8
{12}
н/о н/о +7.0 +4.5 84 +2 +2 1020.8 910.1
10 20.09 З 8
{13}
н/о н/о +7.8 +4.8 81 +3 +3 1020.1 909.7
11 20.09 З 8
{15}
н/о н/о +8.9 +4.9 76 +5 +5 1019.9 909.9
12 20.09 ЮЗ 8
{15}
н/о н/о +8.3 +4.1 75 +4 +4 1020.3 910.1
13 20.09 ЮЗ 9
{14}
н/о н/о +7.7 +3.2 73 +3 +3 1020.8 910.3
14 20.09 З 11
{16}
н/о н/о +8.3 +3.2 70 +3 +3 1020.1 909.9
15 20.09 З 9
{15}
н/о н/о +7.5 +2.4 70 +3 +3 1020.7 910.2
16 20.09 З 9
{14}
н/о н/о +7.2 +2.3 71 +2 +2 1020.9 910.2
17 20.09 З 8
{12}
н/о н/о +6.8 +2.5 74 +2 +2 1021.4 910.5
18 20.09 З 8
{16}
н/о н/о +6.3 +2.6 77 +1 +1 1021.9 910.8 +5.4 +9.1
19 20.09 З 7
{11}
н/о н/о +6.2 +2.5 77 +1 +1 1022.3 911.1
20 20.09 З 5
{11}
н/о н/о +6.0 +3.2 82 +2 +2 1022.5 911.2
21 20.09 З 4
{9}
н/о н/о +5.6 +2.6 81 +2 +2 1022.8 911.3
22 20.09 З 5
{8}
н/о н/о +5.6 +2.6 81 +1 +1 1023.1 911.6
23 20.09 З 3
{8}
н/о н/о +5.1 +2.3 82 +2 +2 1023.3 911.6
00 21.09 З 4
{11}
н/о н/о +5.5 +2.9 83 +2 +2 1023.4 911.8
01 21.09 СЗ 4
{7}
н/о н/о +5.6 +3.1 84 +2 +2 1023.2 911.7
02 21.09 СЗ 4
{6}
н/о н/о +5.7 +3.4 85 +2 +2 1022.9 911.5
03 21.09 СЗ 3
{6}
н/о н/о +5.3 +3.6 89 +2 +2 1022.7 911.1
04 21.09 СЗ 1
{5}
н/о н/о +5.0 +3.5 90 +4 +4 1022.4 910.7
05 21.09 ЮЗ 1
{5}
н/о н/о +2.3 +1.4 94 +1 +1 1023.4 910.5
06 21.09 СЗ 4
{8}
н/о н/о +6.4 +4.2 86 +3 +3 1021.4 910.3 +1.5 +6.4
07 21.09 СЗ 4
{7}
н/о н/о +8.4 +4.6 77 +5 +5 1020.7 910.5
08 21.09 З 5
{8}
н/о н/о +10.6 +4.7 67 +8 +8 1020.0 910.7
09 21.09 ЮЗ 7
{10}
н/о н/о +11.7 +5.4 65 +9 +9 1019.8 910.8
10 21.09 З 6
{10}
н/о н/о +12.6 +5.3 61 +10 +10 1019.7 911.1
11 21.09 З 6
{10}
н/о н/о +13.2 +5.9 61 +11 +11 1019.1 910.8
12 21.09 З 6
{10}
н/о н/о +13.8 +4.7 54 +12 +12 1018.8 910.7
13 21.09 ЮЗ 6
{10}
н/о н/о +14.1 +1.7 43 +12 +12 1018.3 910.4
14 21.09 ЮЗ 6
{9}
н/о н/о +14.0 +2.0 44 +12 +12 1018.0 910.1
15 21.09 ЮЗ 6
{9}
н/о н/о +13.7 +2.3 46 +12 +12 1017.8 909.8
16 21.09 З 5
{8}
н/о н/о +12.9 +2.2 48 +11 +11 1017.9 909.6
17 21.09 СЗ 3
{7}
н/о н/о +11.3 +2.4 54 +10 +10 1018.2 909.3
18 21.09 ЮЗ 1
{10}
н/о н/о +6.4 +2.1 74 +6 +6 1020.1 909.3 +6.4 +14.7
19 21.09 ЮЗ 1
{2}
н/о н/о +3.0 +1.7 91 +1 +1 1021.8 909.4
20 21.09 СЗ 1
{1}
н/о н/о +1.7 +1.0 95 -0 -0 1022.3 909.4
21 21.09 штиль 0
{1}
н/о н/о +1.1 +0.5 96 -0 -0 1022.4 909.2
22 21.09 З 1
{3}
н/о н/о -0.4 -0.9 96 -3 -3 1022.9 909.1
23 21.09 ЮЗ 1
{2}
н/о н/о -0.9 -1.4 96 -3 -3 1022.8 908.8
00 22.09 З 1
{3}
н/о н/о -1.2 -1.6 97 -4 -4 1022.7 908.6
01 22.09 З 1
{2}
н/о н/о -0.9 -1.3 97 -3 -3 1022.3 908.4
02 22.09 штиль 0
{2}
н/о н/о -1.3 -1.7 97 -3 -3 1022.5 908.4
03 22.09 В 1
{2}
н/о н/о -2.2 -2.7 96 -5 -5 1022.4 908.0
04 22.09 штиль 0
{1}
н/о н/о -2.4 -2.9 96 -4 -4 1022.5 907.9
05 22.09 В 1
{1}
н/о н/о -3.2 -3.8 96 -6 -6 1022.6 907.7
06 22.09 В 1
{2}
н/о н/о -1.3 -1.8 96 -4 -4 1021.5 907.6 -3.4 +6.4
07 22.09 штиль 0
{1}
н/о н/о +2.0 +1.4 96 +1 +1 1020.2 907.6
08 22.09 Ю 1
{1}
н/о н/о +7.4 +5.2 86 +6 +6 1017.6 907.3
09 22.09 ЮВ 1
{1}
н/о н/о +12.8 +3.8 54 +13 +13 1015.1 907.0
10 22.09 В 4
{5}
н/о н/о +15.2 +3.4 45 +14 +14 1013.8 906.7
11 22.09 В 5
{6}
н/о н/о +15.9 +3.7 44 +15 +15 1013.4 906.6
12 22.09 В 6
{8}
н/о н/о +16.5 +3.2 41 +15 +15 1012.9 906.4
13 22.09 В 5
{8}
н/о н/о +17.2 +3.5 40 +17 +17 1012.5 906.2
14 22.09 В 5
{7}
н/о н/о +17.3 +3.6 40 +17 +17 1012.2 906.0
15 22.09 В 4
{7}
н/о н/о +16.9 +3.6 41 +16 +16 1012.3 906.0
16 22.09 В 4
{6}
н/о н/о +15.2 +4.0 47 +14 +14 1013.1 906.1
17 22.09 В 3
{5}
н/о н/о +12.5 +4.2 57 +11 +11 1014.4 906.3
18 22.09 В 5
{8}
н/о н/о +11.0 +4.9 66 +8 +8 1015.4 906.7 -1.3 +17.5
19 22.09 В 4
{6}
н/о н/о +9.6 +5.0 73 +7 +7 1016.4 907.1
20 22.09 В 5
{7}
н/о н/о +8.8 +5.6 80 +5 +5 1017.1 907.4
21 22.09 В 4
{7}
н/о н/о +7.1 +4.9 86 +4 +4 1018.2 907.8
22 22.09 В 4
{5}
н/о н/о +6.3 +4.9 91 +2 +2 1019.4 908.5
23 22.09 В 4
{7}
н/о н/о +7.1 +5.7 91 +3 +3 1019.0 908.5
00 23.09 В 4
{7}
н/о н/о +7.2 +6.0 92 +4 +4 1019.2 908.7
01 23.09 СЗ 1
{5}
н/о н/о +5.1 +4.5 96 +4 +4 1020.2 908.8
02 23.09 ЮЗ 1
{2}
н/о н/о +5.0 +4.3 95 +4 +4 1020.2 908.7
03 23.09 СЗ 1
{2}
н/о н/о +5.2 +4.5 95 +4 +4 1019.8 908.5
04 23.09 СЗ 1
{2}
н/о н/о +5.8 +5.1 95 +4 +4 1019.5 908.4
05 23.09 С 1
{3}
н/о н/о +5.4 +4.5 94 +4 +4 1019.5 908.3
06 23.09 З 1
{5}
н/о н/о +5.8 +4.8 93 +5 +5 1019.6 908.5 +4.4 +11.0
07 23.09 СЗ 1
{2}
н/о н/о +6.1 +5.1 93 +5 +5 1019.6 908.6
08 23.09 В 3
{5}
н/о н/о +7.6 +5.4 86 +5 +5 1019.2 908.8
09 23.09 В 3
{6}
н/о н/о +7.5 +5.3 86 +5 +5 1019.2 908.8
10 23.09 В 5
{7}
н/о н/о +8.0 +5.1 82 +4 +4 1018.8 908.6
11 23.09 В 5
{6}
н/о н/о +8.3 +5.4 82 +5 +5 1018.4 908.3
12 23.09 В 5
{7}
н/о н/о +8.2 +5.1 81 +5 +5 1018.2 908.2
13 23.09 В 5
{7}
н/о н/о +8.1 +5.1 81 +4 +4 1017.8 907.8
14 23.09 В 6
{8}
н/о н/о +8.3 +4.9 79 +4 +4 1017.6 907.7
15 23.09 В 5
{8}
н/о н/о +7.9 +4.7 80 +4 +4 1017.5 907.5
16 23.09 В 5
{7}
н/о н/о +7.7 +4.8 82 +4 +4 1017.3 907.2
17 23.09 ЮВ 2
{6}
н/о н/о +7.0 +4.5 84 +5 +5 1017.6 907.2
18 23.09 В 2
{8}
н/о н/о +6.7 +4.5 86 +4 +4 1017.8 907.3 +5.6 +8.9
19 23.09 В 2
{3}
н/о н/о +6.5 +4.5 87 +4 +4 1017.7 907.1

 

Местоположение метеостанции Филефель (Норвегия): широта 61.18 долгота 8.11 высота над уровнем моря 956 м.

В архиве по умолчанию представлена погода в Филефеле за последнюю неделю. Архивные данные за месяц целиком и за предыдущие месяцы, начиная с января 2011 года, Вы можете получить, выбрав интересующий диапазон дат из раскрывающегося списка и нажав кнопку "Ввод!".


*Определитесь, кто Вы:
робот инопланетянин человек

Внимание! Время в таблицах - всемирное. Для получения местного времени необходимо прибавить поправку, которая равна 1 ч.

Смотрите также архив погоды в соседних городах и на ближайших метеорологических станциях:

Погода в Лардале (Норвегия) (34 км)
Погода в Хемседале (Норвегия) (41 км)
Погода в Сонгфельсхутте (Норвегия) (44 км)
Погода в Хемседале II (Норвегия) (44 км)
Погода в Бейтостолене (Норвегия) (44 км)
Погода в Локен и Волбу (Норвегия) (51 км)
Погода в Согндал аэропорту (Норвегия) (53 км)
Погода в Юввассу (Норвегия) (57 км)
Погода в Фагернесе (Норвегия) (64 км)
Погода в Фагернес аэропорту (Норвегия) (67 км)

Пояснения к столбцам:

Ветер - указаны скорость ветра в м/с - средняя за 10 мин, порывы в срок и между сроками (в фигурных скобках) и направление, откуда дует ветер: С - северный, СВ - северо-восточный, В - восточный, ЮВ - юго-восточный, Ю - южный, ЮЗ - юго-западный, З - западный, СЗ - северо-западный.
Видимость - горизонтальная дальность видимости в метрах или километрах. При видимости от 1 до 10 км при отсутствии осадков обычно наблюдается дымка, при ухудшении видимости до 1 км и менее - туман. В сухую погоду видимость может ухудшаться дымом, пылью или мглою.
Явления - указаны атмосферные явления, наблюдавшиеся в срок или в последний час перед сроком; фигурными скобками обозначены явления, наблюдавшиеся между сроками (за 1-3 часа до срока); квадратными скобками обозначены град или гололедные отложения с указанием их диаметра в мм.
Облачность - указаны через наклонную черту общая и нижняя облачность в баллах и высота нижней границы облаков в метрах; квадратными скобками обозначены формы облаков: Ci - перистые, Cs - перисто-слоистые, Cc - перисто-кучевые, Ac - высококучевые, As - высокослоистые, Sc - слоисто-кучевые, Ns - слоисто-дождевые, Cu - кучевые, Cb - кучево-дождевые. Подробнее классификацию облаков см. в Атласе облаков (PDF).
T - Температура воздуха - температура, измеренная на высоте 2 м над землей.
Td - Температура точки росы - температура, при понижении до которой содержащийся в воздухе водяной пар достигнет насыщения.
f - Относительная влажность воздуха - влажноcть воздуха, измеренная на высоте 2 м над землей.
Te - Эффективная температура - температура, которую ощущает одетый по сезону человек в тени. Характеристика душности погоды. При расчете учитывается влияние влажности воздуха и скорости ветра на теплоощущения человека.
Tes - Эффективная температура на солнце - температура, которую ощущает человек, с поправкой на солнечный нагрев. Характеристика знойности погоды. Зависит от высоты солнца над горизонтом, облачности и скорости ветра. Ночью, в пасмурную погоду, а также при ветре 12 м/с и более поправка равна нулю.
P - Атмосферное давление - приведенное к уровню моря атмосферное давление.
Po - Атмосферное давление - измеренное на уровне метеостанции атмосферное давление.
Tmin - Минимальная температура - минимум температуры воздуха на высоте 2 м над землей.
Tmax - Максимальная температура - максимум температуры воздуха на высоте 2 м над землей.
R - Количество осадков - Количество выпавших осадков за период времени, мм. При наведении курсора мыши на число - период времени, за который выпало указанное количество осадков.
R24 - Количество осадков - Количество выпавших осадков за 24 часа, мм.
S - Снежный покров - Высота снежного покрова, см. При наведении курсора мыши на число - состояние снежного покрова и степень покрытия местности в баллах.